Flag for Trinidad and Tobago Weather past 2 weeks in Scarborough, Trinidad and Tobago

Now
81 °F

Passing clouds.


Feels Like: 85 °F
Forecast: 78 / 85 °F
Wind: 14 mph from East

Location: Crown Pt./ Scarborou

Current Time: Apr 27, 2015 at 11:01:14 PM

Latest Report: Apr 27, 2015 at 10:00 PM


Visibility: N/A

Pressure: 29.95 "Hg

Humidity: 74%

Dew point: 72 °F

Location of ScarboroughLocation

Historic Weather in Scarborough — Graph

°F

Scarborough temperature yesterday

Maximum temperature yesterday: 86 °F (at 1:00 PM)
Minimum temperature yesterday: 79 °F (at 12:00 AM)
Average temperature yesterday: 82 °F

Past Weeks' High & Low Weather Summary

 TemperatureHumidityPressure
High90 °F (Apr 17, 12:00 PM)89% (Apr 15, 3:00 PM)30.07 "Hg (Apr 15, 3:00 PM)
Low75 °F (Apr 13, 5:00 AM)55% (Apr 17, 12:00 PM)29.89 "Hg (Apr 17, 5:00 PM)
Average81 °F72%29.96 "Hg
* Reported Apr 12 10:00 PM — Apr 27 10:00 PM, Scarborough, Weather by CustomWeather, © 2015

Note: Actual official high and low records may vary slightly from our data, if they occured in-between our weather recording intervals... More about our weather records

Advertising

Scarborough weather history for previous 24 hours

 ConditionsComfort  
Time TempWeatherWind HumidityBarometerVisibility
10:00 PM
Mon, Apr 27
81 °FPassing clouds.14 mph74%29.95 "HgN/A
9:00 PM81 °FPassing clouds.15 mph70%29.95 "HgN/A
8:00 PM81 °FPassing clouds.15 mph79%29.92 "HgN/A
7:00 PM81 °FPassing clouds.15 mph70%29.92 "HgN/A
6:00 PM82 °FPassing clouds.16 mph66%29.89 "HgN/A
5:00 PM82 °FPassing clouds.18 mph70%29.89 "HgN/A
4:00 PM84 °FPassing clouds.18 mph62%29.89 "HgN/A
3:00 PM86 °FPassing clouds.18 mph62%29.92 "HgN/A
2:00 PM86 °FPassing clouds.18 mph62%29.92 "HgN/A
1:00 PM86 °FPassing clouds.21 mph62%29.95 "HgN/A
12:00 PM86 °FPassing clouds.23 mph62%30.01 "HgN/A
11:00 AM86 °FPassing clouds.21 mph66%30.01 "HgN/A
10:00 AM86 °FPassing clouds.21 mph62%30.01 "HgN/A
8:00 AM84 °FPassing clouds.18 mph74%29.98 "HgN/A
7:00 AM81 °FPassing clouds.12 mph74%29.98 "HgN/A
6:00 AM79 °FPassing clouds.13 mph79%29.95 "HgN/A
5:00 AM79 °FPassing clouds.8 mph79%29.95 "HgN/A
3:00 AM79 °FPassing clouds.12 mph79%29.92 "HgN/A
1:00 AM79 °FPassing clouds.12 mph79%29.95 "HgN/A
12:00 AM81 °FPassing clouds.12 mph74%29.95 "HgN/A
11:00 PM
Sun, Apr 26
81 °FPassing clouds.12 mph74%29.98 "HgN/A
Weather by CustomWeather, © 2015

See weather overviewHow to use our weather pages